Weather History for KCTJ - April, 2014

Change the Weather History Date:

Monday, April 7, 2014

  Actual Average Record
Temperature  
Mean Temperature 60 °F -  
Max Temperature 69 °F 71 °F 86 °F (1959)
Min Temperature 50 °F 43 °F 28 °F (1950)
Degree Days  
Heating Degree Days 6    
Growing Degree Days 10 (Base 50)    
Moisture  
Dew Point 54 °F    
Average Humidity 93    
Maximum Humidity 100    
Minimum Humidity 68    
Precipitation  
Precipitation 0.00 in - - ()
Sea Level Pressure  
Sea Level Pressure 29.76 in    
Wind  
Wind Speed 8 mph (ESE)    
Max Wind Speed 16 mph    
Max Gust Speed 25 mph    
Visibility 8 miles    
Events Rain , Thunderstorm    
Averages and records for this station are not official NWS values.
T = Trace of Precipitation, MM = Missing Value Source: NWS Daily Summary

Daily Weather History Graph

Daily Weather History Graph

Search for Another Location

Airport or City:

Trip Planner

Search our weather history database for the weather conditions in past years. The results will help you decide how hot, cold, wet, or windy it might be!

Date:

Astronomy

Apr. 07, 2014 Rise Set
Actual Time 7:20 AM EDT 8:05 PM EDT
Civil Twilight 6:55 AM EDT 8:30 PM EDT
Nautical Twilight 6:25 AM EDT 9:00 PM EDT
Astronomical Twilight 5:54 AM EDT 9:31 PM EDT
Moon 1:22 PM EDT (4/7) 2:34 AM EDT (4/7)
Length of Visible Light 13h 35m
Length of Day
12h 45m
First Quarter, 53% of the Moon is Illuminated
Apr 7
First Quarter
Apr 15
Full
Apr 22
Last Quarter
Apr 29
New
May 6
First Quarter

Hourly Weather History & Observations

Time (EDT) Temp. Dew Point Humidity Pressure Visibility Wind Dir Wind Speed Gust Speed Precip Events Conditions
12:13 AM 51.8 °F 50.0 °F 94% 29.88 in 5.0 mi ESE 6.9 mph - N/A Rain Rain
12:33 AM 51.8 °F 50.0 °F 94% 29.87 in 10.0 mi ESE 8.1 mph - N/A Rain Light Rain
12:53 AM 51.8 °F 51.8 °F 100% 29.86 in 7.0 mi SE 9.2 mph 16.1 mph N/A Rain Rain
1:13 AM 51.8 °F 51.8 °F 100% 29.83 in 10.0 mi ESE 10.4 mph - N/A Rain Light Rain
1:33 AM 51.8 °F 51.8 °F 100% 29.82 in 10.0 mi ESE 9.2 mph - N/A Rain Light Rain
1:53 AM 51.8 °F 51.8 °F 100% 29.80 in 10.0 mi SE 10.4 mph 18.4 mph N/A Rain Light Rain
2:13 AM 51.8 °F 51.8 °F 100% 29.78 in 7.0 mi SE 10.4 mph 18.4 mph N/A Rain Light Rain
2:33 AM 51.8 °F 51.8 °F 100% 29.78 in 7.0 mi ESE 5.8 mph - N/A Rain , Thunderstorm Light Thunderstorms and Rain
2:53 AM 51.8 °F 51.8 °F 100% 29.76 in 5.0 mi ESE 9.2 mph - N/A Rain Rain
3:13 AM 53.6 °F 51.8 °F 94% 29.75 in 7.0 mi ESE 6.9 mph - N/A Rain , Thunderstorm Light Thunderstorms and Rain
3:33 AM 53.6 °F 53.6 °F 100% 29.79 in 5.0 mi NW 12.7 mph 17.3 mph N/A Rain , Thunderstorm Rain
3:53 AM 53.6 °F 51.8 °F 94% 29.79 in 3.0 mi North 16.1 mph 25.3 mph N/A Rain , Thunderstorm Heavy Thunderstorms and Rain
4:13 AM 51.8 °F 51.8 °F 100% 29.78 in 7.0 mi North 11.5 mph 19.6 mph N/A Rain Rain
4:33 AM 51.8 °F 51.8 °F 100% 29.79 in 5.0 mi NE 10.4 mph 17.3 mph N/A Rain , Thunderstorm Heavy Thunderstorms and Rain
4:53 AM 51.8 °F 51.8 °F 100% 29.77 in 3.0 mi NNE 11.5 mph 16.1 mph N/A Rain , Thunderstorm Heavy Thunderstorms and Rain
5:13 AM 51.8 °F 50.0 °F 94% 29.76 in 7.0 mi ENE 10.4 mph 18.4 mph N/A Rain , Thunderstorm Thunderstorms and Rain
5:33 AM 51.8 °F 50.0 °F 94% 29.77 in 3.0 mi NE 11.5 mph 18.4 mph N/A Rain Heavy Rain
5:53 AM 51.8 °F 50.0 °F 94% 29.79 in 3.0 mi NNE 9.2 mph 17.3 mph N/A Rain , Thunderstorm Heavy Thunderstorms and Rain
6:13 AM 51.8 °F 50.0 °F 94% 29.81 in 2.0 mi NNE 9.2 mph - N/A Rain Heavy Rain
6:33 AM 51.8 °F 50.0 °F 94% 29.82 in 7.0 mi NE 8.1 mph - N/A Rain , Thunderstorm Heavy Thunderstorms and Rain
6:53 AM 50.0 °F 50.0 °F 100% 29.85 in 2.0 mi ENE 9.2 mph - N/A Rain , Thunderstorm Heavy Thunderstorms and Rain
7:13 AM 50.0 °F 50.0 °F 100% 29.87 in 5.0 mi East 6.9 mph - N/A Rain , Thunderstorm Thunderstorms and Rain
7:33 AM 50.0 °F 50.0 °F 100% 29.83 in 7.0 mi East 9.2 mph - N/A Rain , Thunderstorm Rain
7:53 AM 50.0 °F 50.0 °F 100% 29.82 in 7.0 mi East 6.9 mph - N/A Rain Rain
8:13 AM 51.8 °F 50.0 °F 94% 29.82 in 10.0 mi ENE 5.8 mph - N/A Rain Light Rain
8:33 AM 51.8 °F 50.0 °F 94% 29.79 in 10.0 mi ENE 8.1 mph - N/A Rain Light Rain
8:53 AM 51.8 °F 51.8 °F 100% 29.79 in 10.0 mi East 3.5 mph - N/A   Overcast
9:13 AM 51.8 °F 51.8 °F 100% 29.77 in 10.0 mi East 5.8 mph - N/A   Overcast
9:33 AM 51.8 °F 51.8 °F 100% 29.78 in 10.0 mi ESE 4.6 mph - N/A Rain Light Rain
9:53 AM 51.8 °F 51.8 °F 100% 29.78 in 10.0 mi ESE 5.8 mph - N/A Rain Light Rain
10:13 AM 51.8 °F 51.8 °F 100% 29.77 in 10.0 mi ESE 5.8 mph - N/A Rain , Thunderstorm Thunderstorms and Rain
10:53 AM 51.8 °F 51.8 °F 100% 29.76 in 10.0 mi ESE 5.8 mph - N/A Rain Light Rain
11:13 AM 53.6 °F 53.6 °F 100% 29.75 in 10.0 mi ESE 8.1 mph - N/A   Overcast
11:33 AM 53.6 °F 53.6 °F 100% 29.75 in 10.0 mi ESE 8.1 mph - N/A   Overcast
11:53 AM 53.6 °F 53.6 °F 100% 29.75 in 10.0 mi SE 8.1 mph - N/A   Overcast
12:13 PM 55.4 °F 55.4 °F 100% 29.74 in 10.0 mi SE 11.5 mph - N/A   Overcast
12:33 PM 55.4 °F 55.4 °F 100% 29.75 in 5.0 mi SE 9.2 mph - N/A   Overcast
12:53 PM 55.4 °F 55.4 °F 100% 29.73 in 1.5 mi ESE 5.8 mph - N/A   Overcast
1:13 PM 55.4 °F 55.4 °F 100% 29.73 in 1.8 mi SE 5.8 mph - N/A   Overcast
1:33 PM 57.2 °F 57.2 °F 100% 29.75 in 5.0 mi Calm Calm - N/A   Overcast
1:53 PM 59.0 °F 59.0 °F 100% 29.73 in 7.0 mi SE 5.8 mph - N/A   Drizzle
2:13 PM 59.0 °F 59.0 °F 100% 29.70 in 10.0 mi SE 6.9 mph - N/A   Light Drizzle
2:33 PM 60.8 °F 60.8 °F 100% 29.70 in 10.0 mi ESE 4.6 mph - N/A   Overcast
2:53 PM 60.8 °F 60.8 °F 100% 29.69 in 10.0 mi SE 6.9 mph - N/A   Overcast
3:13 PM 60.8 °F 60.8 °F 100% 29.67 in 10.0 mi ESE 4.6 mph - N/A   Overcast
3:33 PM 62.6 °F 60.8 °F 94% 29.66 in 10.0 mi SE 6.9 mph - N/A   Overcast
3:53 PM 62.6 °F 62.6 °F 100% 29.65 in 10.0 mi SSE 6.9 mph - N/A   Overcast
4:13 PM 64.4 °F 64.4 °F 100% 29.65 in 10.0 mi South 6.9 mph - N/A   Overcast
4:33 PM 66.2 °F 64.4 °F 94% 29.64 in 10.0 mi SSE 8.1 mph - N/A   Overcast
5:13 PM 68.0 °F 64.4 °F 88% 29.64 in 10.0 mi South 4.6 mph - N/A   Mostly Cloudy
5:53 PM 69.8 °F 64.4 °F 83% 29.64 in 10.0 mi South 6.9 mph - N/A   Scattered Clouds
6:13 PM 69.8 °F 64.4 °F 83% 29.65 in 10.0 mi South 3.5 mph - N/A   Scattered Clouds
6:33 PM 68.0 °F 64.4 °F 88% 29.65 in 10.0 mi South 3.5 mph - N/A   Mostly Cloudy
6:53 PM 68.0 °F 64.4 °F 88% 29.66 in 10.0 mi Calm Calm - N/A   Overcast
7:13 PM 69.8 °F 62.6 °F 78% 29.66 in 10.0 mi WSW 4.6 mph - N/A   Overcast
7:33 PM 68.0 °F 60.8 °F 78% 29.67 in 10.0 mi West 4.6 mph - N/A   Mostly Cloudy
7:53 PM 68.0 °F 57.2 °F 68% 29.69 in 10.0 mi WNW 6.9 mph 17.3 mph N/A   Mostly Cloudy
8:13 PM 64.4 °F 57.2 °F 77% 29.70 in 10.0 mi West 6.9 mph - N/A   Scattered Clouds
8:33 PM 64.4 °F 55.4 °F 73% 29.72 in 10.0 mi WNW 10.4 mph 20.7 mph N/A   Scattered Clouds
8:53 PM 62.6 °F 55.4 °F 77% 29.73 in 10.0 mi WNW 8.1 mph 19.6 mph N/A   Scattered Clouds
9:13 PM 59.0 °F 53.6 °F 82% 29.75 in 10.0 mi NW 11.5 mph 18.4 mph N/A   Mostly Cloudy
9:33 PM 57.2 °F 51.8 °F 82% 29.78 in 10.0 mi WNW 9.2 mph 20.7 mph N/A   Overcast
9:53 PM 55.4 °F 50.0 °F 82% 29.79 in 10.0 mi WNW 10.4 mph 20.7 mph N/A   Overcast
10:13 PM 55.4 °F 46.4 °F 72% 29.80 in 10.0 mi WNW 10.4 mph 16.1 mph N/A   Mostly Cloudy
10:33 PM 53.6 °F 46.4 °F 77% 29.80 in 10.0 mi WNW 6.9 mph - N/A   Scattered Clouds
10:53 PM 53.6 °F 46.4 °F 77% 29.81 in 10.0 mi WNW 4.6 mph - N/A   Scattered Clouds
11:13 PM 53.6 °F 46.4 °F 77% 29.81 in 10.0 mi WNW 4.6 mph - N/A   Overcast
11:33 PM 53.6 °F 46.4 °F 77% 29.82 in 10.0 mi WNW 8.1 mph - N/A   Overcast
11:53 PM 53.6 °F 46.4 °F 77% 29.82 in 10.0 mi WNW 5.8 mph - N/A   Overcast